Location: アルンシュタイン
(50.0000°N, 10.0000°E)
Time: 22:08:39
(UTC+02:00)

BlueWalker 3 - Visible Passes

Search period start: 01 October 2023 00:00
Search period end: 11 October 2023 00:00
Orbit: 491 x 508 km, 53.2° (Epoch: 01 October)

Date Brightness Start Highest point End Pass type
(mag) Time Alt. Az. Time Alt. Az. Time Alt. Az.
01 Oct 5.2 03:39:24 10° E 03:39:24 10° E 03:39:28 10° E visible
01 Oct 1.7 05:14:03 74° W 05:14:20 82° SSW 05:18:12 10° ESE visible
02 Oct 2.7 04:53:48 46° SE 04:53:48 46° SE 04:56:36 10° ESE visible
02 Oct 3.4 06:28:28 13° W 06:30:46 21° SW 06:33:40 10° S visible
03 Oct 4.1 04:33:41 20° ESE 04:33:41 20° ESE 04:34:58 10° ESE visible
03 Oct 3.3 06:08:21 19° WSW 06:09:08 20° SW 06:12:02 10° S visible
04 Oct 3.6 05:48:24 19° SSW 05:48:24 19° SSW 05:50:22 10° S visible
05 Oct 4.4 05:28:37 10° S 05:28:37 10° S 05:28:43 10° S visible
09 Oct 4.0 21:00:06 10° SSW 21:01:15 18° SSW 21:01:15 18° SSW visible
10 Oct 2.9 20:38:22 10° SSW 20:40:56 32° S 20:40:56 32° S visible
